RH
38 37 14 7 6 7 7 6 5 6 9 8 9 9 8 6 5 6 7 7 6 6 6 6 8 13 17 20 21 20 19 18 16 15 14 12 16 29
20 19 33 40 28 9 5 5 6 5 5 6 7 9 9 8 7 5 5 5 6 6 5 5 5 6 7 11 11 10 10 11 12 10 9 11 13 12
20 20 23 18 30 42 28 10 5 5 6 10 5 5 6 8 9 8 7 5 5 5 5 4 4 4 6 7 8 8 9 10 9 9 9 9 9 9
21 21 26 28 30 23 32 46 38 12 8 10 10 6 5 5 7 8 10 10 8 6 5 5 5 7 7 7 7 8 8 10 12 14 16 16 18 21
18 20 23 24 32 32 30 32 37 49 50 54 54 30 12 6 7 10 13 21 26 24 16 11 9 9 9 10 13 15 15 14 14 14 16 19 16 16
20 19 20 19 24 30 34 35 34 38 41 50 54 55 55 46 29 20 22 22 22 18 20 21 22 20 18 16 14 15 23 30 31 31 30 30 28 27
26 24 22 20 20 20 24 36 40 46 50 48 41 41 31 34 43 41 32 25 20 17 14 14 13 12 11 12 17 25 36 41 40 38 36 34 34 32
32 31 28 27 28 30 27 32 36 38 49 54 60 41 30 38 40 30 30 22 23 22 20 20 19 17 19 21 28 39 52 54 47 40 40 38 34 30
36 35 36 34 31 30 36 41 40 41 42 49 50 57 61 65 53 44 46 45 46 42 31 28 31 42 51 58 59 58 53 43 36 38 41 41 40 38
42 42 40 42 45 41 50 60 61 57 49 49 54 60 58 62 60 61 64 69 64 57 52 61 64 58 59 62 55 49 46 48 51 51 47 44 40 36
45 44 42 43 47 47 51 54 70 72 64 64 76 81 83 85 86 88 81 71 66 80 80 63 57 54 52 52 56 60 62 62 64 60 55 49 40 35
30 29 31 35 37 39 37 40 46 50 44 40 44 60 76 87 84 90 92 87 82 90 96 84 71 62 60 72 88 88 81 78 72 64 55 48 43 36
29 22 16 16 15 16 17 19 23 24 26 33 43 49 70 84 85 88 98 100 100 97 100 100 98 90 95 100 97 98 95 81 75 65 56 48 39 32
29 24 21 19 16 13 11 11 12 14 20 28 41 67 70 81 98 96 100 100 90 91 90 93 100 100 98 100 100 100 98 86 75 63 52 42 33 26
12 12 13 15 19 21 19 18 14 19 29 33 34 59 81 96 100 100 99 98 96 94 94 89 86 91 98 99 100 100 93 75 65 60 51 42 31 15
15 14 15 18 21 26 26 25 25 24 34 48 44 43 56 78 100 96 93 92 90 90 93 100 94 85 94 97 95 77 72 67 64 58 40 12 4 3
18 19 25 35 38 47 34 44 53 53 67 70 83 91 99 100 100 100 100 100 94 100 97 87 88 87 88 90 63 54 65 64 49 15 5 6 6 8
23 23 31 47 62 79 83 71 71 94 100 98 100 100 100 100 100 100 100 100 100 100 100 93 93 88 71 56 63 70 61 27 7 7 11 15 24 23
20 18 16 25 42 67 89 100 100 100 100 100 100 100 100 100 100 100 100 100 100 100 100 95 87 68 65 79 74 43 16 10 17 24 25 32 44 37
15 15 16 21 24 38 63 100 100 100 100 100 100 100 100 100 100 100 99 99 96 90 86 75 66 80 81 60 20 14 19 33 31 26 25 25 27 44
18 14 12 12 13 18 30 52 89 100 100 100 100 100 100 100 100 100 94 92 84 72 90 95 88 81 54 20 35 31 30 29 28 27 25 19 21 48
28 22 20 18 14 12 12 20 38 66 100 100 100 100 100 100 100 100 97 100 100 100 98 85 74 39 33 33 27 30 29 29 26 20 17 15 22 58
40 32 26 20 18 18 16 15 17 29 42 76 100 100 100 100 100 100 100 100 100 100 99 67 40 38 27 30 32 36 37 28 16 14 14 17 47 72
Wind_Speed
34 33 33 34 34 35 32 27 27 29 30 31 28 28 28 29 32 34 33 32 31 30 30 30 31 31 31 31 32 31 29 29 28 25 23 21 18 14
39 36 33 35 36 36 35 34 31 28 27 33 34 32 32 33 33 34 37 37 37 35 35 33 33 34 33 33 33 32 31 29 28 27 24 22 20 18
46 45 41 39 38 39 40 37 35 35 32 31 34 37 35 34 37 38 37 39 40 40 39 38 37 36 35 34 34 34 32 31 30 29 26 25 25 23
51 49 49 47 44 42 41 41 42 41 39 38 39 38 38 37 36 38 39 40 41 41 41 41 40 38 36 36 36 36 34 34 34 33 29 28 29 27
57 57 55 53 50 49 47 43 43 44 43 41 40 43 43 42 39 38 37 37 38 40 41 42 42 41 40 39 37 37 36 32 30 28 25 25 25 24
61 59 59 60 58 55 52 49 48 46 45 44 43 43 43 46 45 42 39 39 37 37 39 39 39 40 39 36 33 30 30 30 31 32 33 33 32 32
64 63 62 62 62 62 60 58 56 51 48 47 48 47 45 46 47 46 43 42 40 39 38 38 38 37 35 33 35 35 35 36 37 38 39 40 40 40
69 68 67 66 65 64 64 63 62 62 58 54 49 49 51 50 48 47 45 47 46 44 41 41 41 41 40 41 40 41 42 43 43 42 41 41 42 42
72 72 70 70 70 68 68 67 67 66 65 63 62 58 55 56 56 52 50 50 50 49 47 45 45 45 45 47 47 48 48 47 45 43 41 41 41 42
72 73 73 72 71 70 70 69 69 70 69 69 66 62 63 61 61 61 59 55 53 52 52 50 51 50 49 50 50 49 47 45 43 43 43 44 44 45
72 72 72 72 73 72 72 72 73 72 73 72 71 69 67 66 64 61 60 59 59 56 55 53 53 52 51 48 46 46 47 49 50 48 48 48 48 48
71 70 71 71 72 72 71 71 72 72 71 72 71 70 65 62 61 59 58 58 59 58 57 56 55 54 51 52 53 51 52 53 53 53 52 52 52 52
70 71 71 69 69 71 70 70 68 68 68 67 66 65 63 61 59 57 57 57 58 59 60 59 59 59 58 54 54 55 56 55 55 54 54 53 54 57
69 69 68 67 66 67 67 67 66 66 65 64 64 61 61 60 58 56 55 55 57 58 60 61 59 61 59 57 55 55 54 54 53 54 54 56 59 61
68 66 65 65 64 65 65 65 65 64 63 61 61 61 60 59 56 55 55 53 52 53 56 56 57 58 59 55 49 50 51 51 52 55 57 59 63 63
67 65 65 64 64 64 64 64 63 62 60 58 58 58 57 58 56 55 55 55 54 54 54 52 50 51 50 47 46 48 50 51 54 57 58 57 54 53
65 63 62 62 63 63 64 63 61 59 58 57 55 54 52 51 52 52 51 51 49 50 51 49 50 48 47 47 46 49 53 52 56 54 49 46 47 47
63 61 59 59 60 60 60 62 60 57 55 55 54 53 51 49 47 47 47 47 46 46 46 45 44 43 44 47 49 51 52 50 47 44 42 41 41 40
64 64 62 60 59 58 58 57 57 55 54 53 52 51 50 49 47 45 45 45 44 43 42 42 41 43 46 48 50 49 46 42 38 37 35 35 38 38
60 61 62 62 62 59 57 55 55 54 53 52 51 50 49 47 46 43 41 42 41 40 40 40 43 45 45 48 44 40 37 33 33 34 35 35 36 35
51 53 55 57 59 60 59 57 56 53 52 51 50 48 47 46 44 43 41 41 40 39 41 41 42 43 45 35 31 30 29 32 36 38 37 35 33 32
47 49 50 51 53 54 56 59 58 56 53 51 49 48 46 45 42 41 40 42 42 40 38 37 38 37 30 26 25 27 32 35 36 35 34 32 30 30
42 42 45 48 49 50 52 54 57 58 55 54 50 48 46 44 42 40 40 38 37 36 34 33 32 28 24 23 25 28 30 31 31 31 29 28 28 27
Wind_Direction
294 291 288 286 287 289 286 283 281 279 282 282 281 279 277 272 265 264 264 265 266 266 268 268 270 270 272 272 275 279 284 289 295 299 306 314 327 338
295 294 289 286 286 285 286 284 277 272 271 277 281 278 279 277 273 270 268 266 267 268 268 268 270 272 272 273 276 279 280 281 285 289 293 296 301 306
291 291 290 288 285 283 281 279 277 278 274 267 274 280 277 277 278 275 272 270 268 267 268 269 271 272 273 273 275 277 277 280 282 284 285 287 289 289
287 286 288 287 286 282 279 278 277 274 274 273 273 272 276 276 274 275 274 272 272 269 268 269 270 270 270 270 271 272 274 276 278 278 282 282 278 278
283 284 285 284 285 285 282 280 278 276 276 273 273 274 273 271 271 271 272 272 273 273 271 270 270 270 269 269 269 268 269 270 271 271 270 273 276 277
279 279 281 281 283 283 281 280 280 278 277 275 274 271 271 273 272 268 267 269 269 269 271 270 270 270 269 267 264 260 261 264 266 271 274 275 274 272
277 276 276 277 278 279 279 279 279 277 275 275 275 274 273 270 269 270 268 266 264 266 267 267 266 265 262 259 257 259 265 269 273 275 277 276 275 274
277 276 274 272 272 273 273 274 275 276 276 275 272 272 274 272 272 271 269 266 265 263 263 263 263 263 263 263 264 266 270 273 276 277 276 275 273 272
274 273 272 272 270 270 270 270 271 271 272 273 274 273 272 272 273 272 269 268 267 266 263 264 264 267 269 270 271 272 273 273 274 274 274 273 273 273
271 270 270 270 269 268 268 267 267 268 269 271 271 271 273 273 275 273 273 271 268 266 265 264 265 268 270 270 270 269 269 269 269 270 269 269 270 272
271 268 266 266 267 266 266 266 266 266 267 268 269 269 269 271 271 273 272 270 269 269 267 264 261 264 266 265 266 266 267 270 272 269 269 269 269 270
270 268 268 267 268 267 266 265 266 267 267 267 269 270 269 267 267 267 266 264 264 266 267 267 264 262 260 264 266 267 267 269 269 270 269 269 270 271
268 267 267 265 265 266 266 266 266 266 268 267 267 267 268 268 267 266 265 263 262 264 265 266 264 263 262 262 263 265 265 266 267 267 268 270 272 273
266 266 267 267 265 265 264 264 264 264 264 264 264 264 264 264 264 265 265 264 265 264 265 265 265 266 265 262 261 263 264 265 267 268 269 272 274 275
268 267 266 265 265 264 263 263 263 262 262 261 261 260 260 261 262 262 263 264 264 265 266 265 267 266 264 261 262 265 266 267 268 271 273 275 277 276
268 267 266 265 263 262 262 262 261 261 261 261 260 260 260 260 260 261 262 262 263 265 265 262 260 264 265 264 266 266 268 270 272 274 277 276 274 275
268 267 266 266 265 264 262 261 261 261 261 260 260 260 259 259 260 261 260 261 261 263 261 261 261 261 262 266 266 266 271 274 278 277 273 274 276 277
269 268 266 265 264 263 262 262 261 259 258 259 258 258 258 257 257 258 258 258 258 257 258 259 260 262 262 263 267 274 277 277 272 270 272 276 278 280
268 267 264 262 260 260 260 261 261 261 260 258 257 256 255 256 256 256 256 256 256 255 256 258 260 259 264 272 277 278 272 269 269 271 273 275 275 282
271 268 266 265 263 260 256 256 257 257 257 258 257 257 257 256 256 255 254 254 255 255 256 256 258 265 270 277 273 266 263 265 264 269 274 275 274 279
273 272 269 266 264 262 260 257 253 252 253 252 254 254 254 254 253 254 252 252 251 250 254 258 262 270 275 263 257 259 260 263 269 272 274 272 269 272
281 276 271 267 264 260 257 256 255 252 248 248 249 249 250 252 251 249 249 252 254 254 253 257 267 271 252 247 250 258 268 271 274 274 273 266 259 265
291 285 277 271 265 261 257 254 252 250 247 245 244 246 247 248 247 249 250 254 252 249 251 263 265 243 239 246 259 269 273 277 274 273 268 257 253 259